[[{"header":{"parameterUnit":"m.s-1","parameterCategory":1,"la1":30.2992,"la2":30.254,"lo1":-89.0895,"lo2":-89.0443,"dy":0.0025,"dx":0.0025,"nx":19,"ny":19,"refTime":"2026-05-07T09:00:00:Z","depth":0,"parameterNumber":2,"parameterNumberName":"U-component_of_WINDS"},"data":[0,0,0,-2.6186,-2.619,-2.6378,-2.6379,-2.6635,-2.6637,0,0,0,0,0,0,0,0,0,0,0,-2.6138,-2.614,-2.6185,-2.619,-2.6378,-2.6379,-2.6635,-2.6637,0,0,0,0,0,0,0,0,0,0,0,-2.6137,-2.614,-2.6142,-2.6191,-2.6378,-2.6379,-2.6634,-2.6487,0,0,0,0,0,0,0,0,0,0,-2.6302,-2.6266,-2.6139,-2.6142,-2.6192,-2.6378,-2.6379,-2.648,-2.6496,-2.6556,0,-2.6611,0,-2.6628,-2.6655,-2.6656,0,0,0,-2.6185,-2.6252,-2.6295,-2.6143,-2.6194,-2.6377,-2.6292,-2.6489,-2.6507,-2.6578,-2.6614,-2.6623,-2.6632,-2.6657,-2.6659,-2.7021,-2.7023,0,0,-2.6174,-2.6177,-2.6282,-2.6307,-2.6278,-2.6286,-2.6298,-2.65,-2.654,-2.6615,-2.6629,-2.6636,-2.6659,-2.6661,-2.7019,-2.7022,0,0,0,-2.6148,-2.617,-2.6208,-2.6297,-2.633,-2.6291,-2.6305,-2.6531,-2.6543,-2.6632,-2.664,-2.6661,-2.6664,-2.7017,-2.702,-2.712,0,0,0,-2.6142,-2.6155,-2.6203,-2.6207,-2.6326,-2.6432,-2.6332,-2.6529,-2.6551,-2.6638,-2.6661,-2.6666,-2.7015,-2.7019,-2.7113,-2.7168,0,0,0,-2.6123,-2.6153,-2.6182,-2.6207,-2.6288,-2.6429,-2.6452,-2.6533,-2.6557,-2.6657,-2.6667,-2.7014,-2.7018,-2.7106,-2.7157,-2.7265,0,0,0,-2.6105,-2.6269,-2.6184,-2.6371,-2.6286,-2.6488,-2.6451,-2.6602,-2.67,-2.6662,-2.7015,-2.702,-2.7104,-2.715,-2.7258,-2.7357,-2.7398,0,0,-2.6314,-2.6295,-2.6404,-2.6333,-2.6552,-2.646,-2.6693,-2.6781,-2.6788,-2.6943,-2.6952,-2.7115,-2.7156,-2.7263,-2.7625,-2.7658,0,0,0,-2.6471,-2.655,-2.6607,-2.67,-2.6769,-2.6834,-2.6885,-2.6917,-2.7048,-2.6868,-2.7182,-2.7207,-2.727,-2.7317,-2.7345,-2.7399,-2.7041,-2.7041,-2.704,-2.6773,-2.6772,-2.6954,-2.6976,-2.7066,-2.7116,-2.719,-2.7242,-2.7216,-2.729,-2.7337,-2.7556,-2.7612,-2.7633,-2.7689,-2.7388,-2.7388,-2.7388,-2.7389,-2.7081,-2.7193,-2.7153,-2.7314,-2.7313,-2.745,-2.7504,-2.7481,-2.7609,-2.7521,-2.7576,-2.7482,-2.7669,-2.7718,-2.7396,-2.7395,-2.7394,-2.7393,-2.7393,-2.728,-2.7333,-2.7369,-2.7501,-2.7604,-2.7621,-2.7745,-2.7739,-2.7735,-2.7789,-2.7839,-2.7837,-2.7836,-2.7813,-2.7814,-2.7814,-2.7815,-2.7816,-2.7816,-2.7473,-2.7509,-2.7614,-2.7701,-2.7759,-2.7835,-2.7886,-2.7944,-2.8007,-2.7993,-2.7994,-2.7961,-2.7686,-2.7618,-2.7828,-2.7826,-2.7824,-2.7823,-2.7823,-2.7788,-2.7716,-2.7878,-2.7936,-2.8037,-2.814,-2.813,-2.8249,-2.8295,-2.8357,-2.8312,-2.8109,-2.8089,-2.8067,-2.8011,-2.831,-2.831,-2.831,-2.8311,-2.7958,-2.7946,-2.811,-2.8204,-2.8295,-2.8302,-2.8486,-2.8528,-2.856,-2.8589,-2.8544,-2.8468,-2.8446,-2.844,-2.841,-2.8357,-2.8738,-2.8738,-2.8739,-2.8152,-2.8149,-2.8307,-2.8335,-2.8413,-2.8482,-2.8655,-2.8765,-2.8786,-2.8756,-2.8612,-2.8594,-2.8471,-2.8431,-2.84,-2.8353,-2.8257,0,0]},{"header":{"parameterUnit":"m.s-1","parameterCategory":1,"la1":30.2992,"la2":30.254,"lo1":-89.0895,"lo2":-89.0443,"dy":0.0025,"dx":0.0025,"nx":19,"ny":19,"refTime":"2026-05-07T09:00:00:Z","depth":0,"parameterNumber":3,"parameterNumberName":"V-component_of_WINDS"},"data":[0,0,0,-2.6967,-2.6968,-2.6983,-2.6983,-2.702,-2.702,0,0,0,0,0,0,0,0,0,0,0,-2.6974,-2.6975,-2.6967,-2.6968,-2.6983,-2.6983,-2.702,-2.702,0,0,0,0,0,0,0,0,0,0,0,-2.6974,-2.6975,-2.6976,-2.6968,-2.6983,-2.6983,-2.702,-2.7002,0,0,0,0,0,0,0,0,0,0,-2.6984,-2.7002,-2.6975,-2.6976,-2.6968,-2.6983,-2.6983,-2.7001,-2.7003,-2.7021,0,-2.7041,0,-2.7031,-2.7024,-2.7024,0,0,0,-2.6959,-2.7001,-2.6994,-2.6976,-2.6968,-2.6983,-2.6974,-2.7002,-2.7004,-2.7024,-2.7041,-2.7042,-2.7032,-2.7025,-2.7025,-2.7158,-2.7159,0,0,-2.6958,-2.6983,-2.6992,-2.6996,-2.6996,-2.6973,-2.6974,-2.7003,-2.7023,-2.7041,-2.7043,-2.7033,-2.7025,-2.7025,-2.7157,-2.7159,0,0,0,-2.6962,-2.6983,-2.6975,-2.6995,-2.6997,-2.6974,-2.6975,-2.7022,-2.7017,-2.7043,-2.7033,-2.7025,-2.7026,-2.7156,-2.7158,-2.7233,0,0,0,-2.6961,-2.6985,-2.6976,-2.6991,-2.6997,-2.701,-2.6993,-2.7015,-2.7018,-2.7033,-2.7025,-2.7026,-2.7155,-2.7157,-2.7229,-2.7265,0,0,0,-2.6969,-2.6986,-2.6992,-2.6992,-2.7,-2.7009,-2.7005,-2.7015,-2.7012,-2.7024,-2.7027,-2.7154,-2.7157,-2.7225,-2.7258,-2.7308,0,0,0,-2.6986,-2.706,-2.6994,-2.7072,-2.7,-2.7055,-2.7005,-2.7045,-2.7064,-2.7026,-2.7155,-2.7158,-2.7223,-2.7254,-2.7303,-2.7354,-2.7377,0,0,-2.7093,-2.7074,-2.7117,-2.7059,-2.7132,-2.7051,-2.7135,-2.7129,-2.7107,-2.7142,-2.7145,-2.723,-2.7258,-2.7307,-2.7498,-2.7517,0,0,0,-2.716,-2.7192,-2.7206,-2.7226,-2.7222,-2.7222,-2.7201,-2.7198,-2.7227,-2.7131,-2.726,-2.7276,-2.7303,-2.7326,-2.7342,-2.7364,-2.7169,-2.7169,-2.7169,-2.7349,-2.7316,-2.7386,-2.7355,-2.7375,-2.7351,-2.7363,-2.7355,-2.7318,-2.7348,-2.7359,-2.7479,-2.7507,-2.7519,-2.7542,-2.7383,-2.7383,-2.7383,-2.7383,-2.7504,-2.7544,-2.7489,-2.7538,-2.7503,-2.7543,-2.7522,-2.7493,-2.7526,-2.7469,-2.7491,-2.7433,-2.754,-2.7559,-2.7389,-2.7388,-2.7387,-2.7387,-2.7386,-2.7624,-2.7638,-2.7633,-2.7656,-2.7678,-2.7643,-2.7676,-2.7642,-2.7611,-2.7633,-2.764,-2.7639,-2.7633,-2.7638,-2.7639,-2.7639,-2.764,-2.764,-2.764,-2.7752,-2.7744,-2.7776,-2.7777,-2.7784,-2.7789,-2.7764,-2.777,-2.7768,-2.7741,-2.7741,-2.77,-2.7557,-2.7522,-2.7646,-2.7645,-2.7645,-2.7644,-2.7643,-2.7923,-2.7878,-2.7928,-2.7935,-2.7932,-2.7955,-2.7911,-2.7926,-2.7926,-2.7943,-2.7896,-2.7795,-2.7773,-2.776,-2.7731,-2.7903,-2.7903,-2.7903,-2.7903,-2.8025,-2.801,-2.8052,-2.8065,-2.8074,-2.8038,-2.8094,-2.8075,-2.8048,-2.8045,-2.8015,-2.7974,-2.7962,-2.7947,-2.793,-2.7902,-2.8113,-2.8113,-2.8113,-2.8128,-2.8111,-2.8166,-2.8138,-2.8133,-2.813,-2.8181,-2.8198,-2.8158,-2.8121,-2.8043,-2.8034,-2.7966,-2.7946,-2.7909,-2.7883,-2.7832,0,0]}]]